This is the latest recevied weather packets stored in our database for station/object KE5VT. If no packets are shown the sender has not sent any weather packets the latest 10 day(s).
| Time | Temp. | Humidity | Pressure | Rain* | Wind** | Luminosity | Snow |
|---|---|---|---|---|---|---|---|
| 1777645483 | 12.78° C | 60% | 1011.8 hPa | 0 mm | - | 110 W/m² | - |
| 1777645178 | 12.78° C | 59% | 1011.8 hPa | 0 mm | - | 119 W/m² | - |
| 1777644875 | 12.78° C | 60% | 1011.7 hPa | 0 mm | - | 98 W/m² | - |
| 1777644573 | 12.78° C | 59% | 1011.6 hPa | 0 mm | - | 152 W/m² | - |
| 1777644268 | 12.78° C | 61% | 1011.6 hPa | 0 mm | - | 81 W/m² | - |
| 1777643965 | 12.78° C | 61% | 1011.7 hPa | 0 mm | - | 75 W/m² | - |
| 1777643662 | 12.78° C | 59% | 1011.6 hPa | 0 mm | - | 78 W/m² | - |
| 1777643360 | 12.78° C | 61% | 1011.8 hPa | 0 mm | - | 100 W/m² | - |
| 1777643056 | 12.78° C | 60% | 1011.3 hPa | 0 mm | - | 68 W/m² | - |
| 1777642752 | 12.78° C | 59% | 1011.4 hPa | 0 mm | - | 74 W/m² | - |
| 1777642450 | 12.78° C | 59% | 1011.6 hPa | 0 mm | - | 76 W/m² | - |
| 1777642145 | 12.78° C | 59% | 1011.6 hPa | 0 mm | - | 99 W/m² | - |
| 1777641842 | 12.78° C | 60% | 1011.5 hPa | 0 mm | - | 75 W/m² | - |
| 1777641538 | 12.78° C | 58% | 1011.4 hPa | 0 mm | - | 62 W/m² | - |
| 1777641238 | 12.78° C | 57% | 1011.3 hPa | 0 mm | - | 87 W/m² | - |
| 1777640935 | 12.78° C | 59% | 1011.1 hPa | 0 mm | - | 97 W/m² | - |
| 1777640632 | 12.78° C | 57% | 1011.3 hPa | 0 mm | - | 66 W/m² | - |
| 1777640328 | 12.78° C | 58% | 1011.3 hPa | 0 mm | - | 54 W/m² | - |
| 1777640024 | 12.78° C | 60% | 1011.2 hPa | 0 mm | - | 64 W/m² | - |
| 1777639721 | 12.78° C | 57% | 1011.4 hPa | 0 mm | - | 60 W/m² | - |
| 1777639420 | 12.78° C | 59% | 1011.3 hPa | 0 mm | - | 70 W/m² | - |
| 1777639120 | 12.78° C | 61% | 1011.6 hPa | 0 mm | - | 72 W/m² | - |
| 1777638817 | 12.78° C | 56% | 1011.2 hPa | 0 mm | - | 67 W/m² | - |
| 1777638517 | 12.78° C | 58% | 1011.5 hPa | 0 mm | - | 67 W/m² | - |
| 1777638215 | 12.78° C | 60% | 1011.2 hPa | 0 mm | - | 56 W/m² | - |
* Rain latest hour (hover to see other rain measurements)
** Current wind speed in m/s (hover to see current wind gust speed)